GW1838 Weather Reports


time (UTC)temp
F
wind
direction
speed
knots
gust
knots
rain 1hr
in
rain 24hr
in
rain mn
in
humidity
%
barometer
mb
20260902184307 77 102 4.3 7.0 0.00 1.74 0.00 80 1018.0
20260902181807 78 77 2.6 7.0 0.00 1.74 0.00 78 1018.7
20260902181307 77 89 4.3 10.4 0.00 1.74 0.00 78 1018.7
20260902175808 78 78 5.2 10.4 0.00 1.74 0.00 78 1018.9
20260902173808 78 69 6.1 10.4 0.00 1.74 0.00 78 1018.5
20260902173308 78 70 5.2 10.4 0.00 1.74 0.00 79 1018.5
20260902172808 78 73 5.2 10.4 0.00 1.74 0.00 79 1018.5
20260902172308 78 101 6.1 10.4 0.00 1.74 0.00 78 1018.5
20260902171807 78 80 5.2 10.4 0.00 1.74 0.00 79 1018.4
20260902170808 78 90 6.1 10.4 0.00 1.74 0.00 78 1018.4
20260902170308 78 72 5.2 10.4 0.00 1.74 0.00 79 1018.6
20260902164807 78 68 4.3 10.4 0.00 1.74 0.00 79 1018.7
20260902162307 78 74 5.2 8.7 0.00 1.74 0.00 78 1018.6
20260902161307 78 99 6.1 10.4 0.00 1.74 0.00 78 1018.6
20260902160807 78 99 6.1 11.3 0.00 1.74 0.00 78 1018.6
20260902155307 78 96 7.8 13.0 0.00 1.74 0.00 79 1018.5
20260902153807 78 93 5.2 12.2 0.00 1.74 0.00 79 1018.5
20260902153307 77 93 7.0 11.3 0.00 1.74 0.00 80 1018.6
20260902145307 77 97 7.0 13.0 0.00 1.74 0.00 81 1018.9
20260902144307 76 95 6.1 13.0 0.00 1.74 0.00 83 1018.6
20260902142807 76 99 7.0 11.3 0.00 1.74 0.00 84 1018.8
20260902140807 76 93 5.2 10.4 0.00 1.74 0.00 84 1018.8
20260902140307 76 93 6.1 10.4 0.00 1.74 0.00 84 1018.7
20260902135307 76 98 5.2 10.4 0.00 1.74 0.00 85 1018.4
20260902133807 75 89 7.0 12.2 0.00 1.74 0.00 86 1018.2
20260902132807 75 93 6.1 10.4 0.00 1.74 0.00 87 1018.0
20260902131807 74 96 7.0 12.2 0.00 1.74 0.00 88 1018.0
20260902131307 74 91 6.1 12.2 0.00 1.74 0.00 88 1017.9
20260902130307 74 92 5.2 10.4 0.00 1.74 0.00 88 1017.8
20260902125307 74 95 7.8 10.4 0.00 1.74 0.00 88 1017.9
20260902124309 74 94 6.1 10.4 0.00 1.74 0.00 88 1018.0
20260902123807 74 87 5.2 10.4 0.00 1.74 0.00 89 1017.9
20260902122307 74 92 6.1 10.4 0.00 1.74 0.00 90 1017.8
20260902120307 73 86 5.2 12.2 0.00 1.74 0.00 90 1017.9
20260902115309 73 82 6.1 11.3 0.00 1.74 0.00 90 1017.7
20260902113808 73 79 5.2 10.4 0.00 1.74 0.00 90 1017.7
20260902112307 73 69 5.2 10.4 0.00 1.74 0.00 91 1017.8
20260902110807 73 93 4.3 10.4 0.00 1.74 0.00 90 1017.7
20260902110307 73 82 5.2 10.4 0.00 1.74 0.00 90 1017.6
20260902103807 74 71 6.1 11.3 0.00 1.74 0.00 89 1017.5
20260902103307 74 83 7.0 12.2 0.00 1.74 0.00 89 1017.5
20260902102807 74 96 6.1 12.2 0.00 1.74 0.00 89 1017.5
20260902102308 74 86 5.2 13.0 0.00 1.74 0.00 89 1017.4
20260902101807 74 75 5.2 11.3 0.00 1.74 0.00 89 1017.4
20260902101307 74 70 6.1 12.2 0.00 1.74 0.00 89 1017.4
20260902100807 74 70 6.1 11.3 0.00 1.74 0.00 89 1017.3
20260902094807 74 73 5.2 8.7 0.00 1.74 0.00 89 1017.0
20260902094307 74 62 6.1 12.2 0.00 1.74 0.00 89 1016.9
20260902093807 74 72 6.1 11.3 0.00 1.74 0.00 89 1016.8
20260902092808 74 87 7.0 10.4 0.00 1.74 0.00 90 1016.7
20260902091308 74 73 6.1 10.4 0.00 1.74 0.00 90 1016.6
20260902085807 74 56 6.1 10.4 0.00 1.74 0.00 90 1016.5
20260902085306 74 88 5.2 10.4 0.00 1.74 0.00 90 1016.5
20260902082808 74 88 6.1 10.4 0.00 1.74 0.00 91 1016.4
20260902080307 74 65 6.1 11.3 0.00 1.74 0.00 91 1016.0
20260902075807 74 76 7.0 12.2 0.00 1.74 0.00 91 1016.1
20260902074806 74 69 7.0 11.3 0.00 1.74 0.00 91 1016.2
20260902074307 74 69 6.1 11.3 0.00 1.74 0.00 91 1016.2
20260902073307 74 79 5.2 11.3 0.00 1.74 0.00 92 1016.1
20260902072807 74 53 5.2 11.3 0.00 1.74 0.00 92 1016.0
20260902072309 74 65 5.2 10.4 0.00 1.74 0.00 92 1016.0
20260902071307 74 58 7.0 10.4 0.00 1.74 0.00 92 1015.9
20260902070807 74 65 7.0 10.4 0.00 1.74 0.00 92 1015.9
20260902070307 74 58 5.2 10.4 0.00 1.74 0.00 92 1015.9
20260902065807 74 54 7.8 13.9 0.00 1.74 0.00 92 1015.8
20260902063807 74 60 5.2 10.4 0.00 1.74 0.00 92 1015.9
20260902062807 74 70 6.1 12.2 0.00 1.74 0.00 93 1015.7
20260902061807 74 59 7.8 12.2 0.00 1.74 0.00 93 1015.6
20260902061307 74 54 5.2 11.3 0.00 1.74 0.00 93 1015.6
20260902060807 74 54 5.2 10.4 0.00 1.74 0.00 93 1015.7
20260902055807 74 37 5.2 12.2 0.00 1.74 0.00 93 1015.6
20260902053807 74 64 5.2 13.0 0.00 1.74 0.00 93 1015.7
20260902053307 74 70 7.0 13.0 0.00 1.74 0.00 93 1015.6
20260902051807 74 41 6.1 13.0 0.00 1.74 0.00 93 1015.7
20260902045807 74 50 5.2 10.4 0.00 1.74 0.00 93 1015.6
20260902045307 74 49 5.2 11.3 0.00 1.74 0.00 92 1015.6
20260902043807 74 34 6.1 11.3 0.00 1.74 0.00 92 1015.6
20260902043307 74 30 6.1 11.3 0.00 1.74 0.00 92 1015.6
20260902042807 74 24 7.0 13.9 0.00 1.74 0.00 92 1015.5
20260902042309 74 36 7.8 13.0 0.00 1.74 0.00 92 1015.5
20260902041807 74 26 7.8 13.0 0.00 1.74 0.00 92 1015.4
20260902040838 74 25 10.4 13.9 0.00 1.74 0.00 92 1015.3
20260902040308 74 25 8.7 13.0 0.00 1.74 0.00 92 1015.3
20260902035807 74 33 7.8 13.0 0.00 1.74 1.74 92 1015.1
20260902035307 74 29 6.1 10.4 0.00 1.74 1.74 92 1015.0
20260902034807 73 30 6.1 10.4 0.00 1.74 1.74 92 1015.0
20260902033807 73 353 7.8 11.3 0.00 1.74 1.74 92 1015.0
20260902033307 73 349 9.6 12.2 0.01 1.74 1.74 92 1015.0
20260902032807 72 350 8.7 10.4 0.01 1.74 1.74 92 1014.9
20260902032307 72 346 7.8 11.3 0.01 1.74 1.74 92 1014.7
20260902030807 72 324 1.7 5.2 0.01 1.74 1.74 92 1014.8
20260902024807 72 253 3.5 10.4 0.02 1.74 1.74 91 1014.8
20260902024307 72 250 5.2 13.0 0.03 1.74 1.74 91 1015.0
20260902023307 73 241 6.1 10.4 0.05 1.73 1.73 92 1015.2
20260902021806 72 255 1.7 2.6 0.46 1.73 1.73 91 1015.4
20260902020307 73 311 5.2 12.2 1.26 1.73 1.73 91 1014.8
20260902015806 73 345 7.8 12.2 1.41 1.73 1.73 92 1014.3
20260902015307 73 19 3.5 8.7 1.55 1.73 1.73 91 1013.7
20260902014807 73 4 2.6 8.7 1.59 1.72 1.72 92 1013.5
20260902014307 73 321 3.5 8.7 1.64 1.71 1.71 92 1014.0
20260902012807 72 115 6.1 17.4 1.63 1.66 1.66 91 1013.3
20260902012309 73 90 11.3 20.0 1.56 1.58 1.58 91 1013.8
20260902011806 73 77 12.2 22.6 1.27 1.27 1.27 90 1014.7
20260902011306 74 48 18.2 24.3 0.89 0.89 0.89 88 1014.3
20260902010306 78 348 7.8 17.4 0.47 0.47 0.47 89 1013.0
20260902004807 80 248 1.7 4.3 0.13 0.13 0.13 89 1012.4
20260902003307 80 233 2.6 4.3 0.03 0.03 0.03 89 1012.1
20260902002807 80 212 1.7 5.2 0.03 0.03 0.03 89 1011.8
20260902002307 79 205 1.7 2.6 0.02 0.02 0.02 88 1012.1
20260902000307 80 196 4.3 6.1 0.00 0.00 0.00 87 1012.5
20260901234307 81 224 3.5 10.4 0.00 0.00 0.00 86 1012.3
20260901233306 81 243 5.2 11.3 0.00 0.00 0.00 85 1012.5
20260901231807 82 233 2.6 7.0 0.00 0.00 0.00 84 1012.5
20260901231307 82 233 3.5 7.8 0.00 0.00 0.00 84 1012.5
20260901230807 82 220 3.5 6.1 0.00 0.00 0.00 83 1012.3
20260901225806 82 223 4.3 10.4 0.00 0.00 0.00 83 1012.5
20260901225306 82 220 5.2 8.7 0.00 0.00 0.00 82 1012.3
20260901224306 82 226 2.6 7.8 0.00 0.00 0.00 83 1012.0
20260901223806 82 215 2.6 6.1 0.00 0.00 0.00 83 1012.0
20260901221807 82 212 5.2 10.4 0.00 0.00 0.00 82 1012.1
20260901214806 85 222 3.5 10.4 0.00 0.00 0.00 78 1012.3
20260901213806 85 197 4.3 10.4 0.00 0.00 0.00 77 1012.3
20260901211807 87 205 4.3 11.3 0.00 0.00 0.00 75 1012.3
20260901211307 87 206 3.5 10.4 0.00 0.00 0.00 76 1012.3
20260901210806 87 225 7.0 12.2 0.00 0.00 0.00 74 1012.4
20260901210307 88 209 3.5 7.8 0.00 0.00 0.00 74 1012.4
20260901205307 88 227 4.3 10.4 0.00 0.00 0.00 74 1012.4
20260901204807 88 230 2.6 8.7 0.00 0.00 0.00 75 1012.5
20260901203307 86 213 5.2 10.4 0.00 0.00 0.00 77 1012.4
20260901202806 86 208 5.2 11.3 0.00 0.00 0.00 76 1012.4
20260901202306 87 206 6.1 12.2 0.00 0.00 0.00 74 1012.4
20260901200806 89 219 5.2 10.4 0.00 0.00 0.00 72 1012.6
20260901200306 89 184 4.3 7.8 0.00 0.00 0.00 73 1012.7
20260901195807 88 221 4.3 10.4 0.00 0.00 0.00 73 1012.7
20260901195306 90 199 4.3 11.3 0.00 0.00 0.00 71 1012.6
20260901194807 90 251 2.6 6.1 0.00 0.00 0.00 72 1012.6
20260901192806 89 226 2.6 7.8 0.00 0.00 0.00 72 1012.6
20260901192306 89 238 5.2 8.7 0.00 0.00 0.00 72 1012.5
20260901191807 89 238 6.1 12.2 0.00 0.00 0.00 72 1012.5
20260901191306 89 230 5.2 10.4 0.00 0.00 0.00 72 1012.6
20260901190307 88 238 4.3 10.4 0.00 0.00 0.00 73 1012.8